Regional Weather Roundup
Issued by NWS Charleston, SC

Current Version | Previous Version | Graphics & Text | Print | Product List | Glossary On
Versions: 1 2 3 4 5 6 7 8 9 10 11 12 13 14 15 16 17 18 19 20 21 22 23 24 25 26 27 28 29 30 31 32 33 34 35 36 37 38 39 40 41 42 43 44 45 46 47 48 49 50
980 ASUS42 KCHS 171712 RWRCHS REGIONAL WEATHER ROUNDUP NATIONAL WEATHER SERVICE CHARLESTON SC 1200 PM EST TUE JAN 17 2017 NOTE: "FAIR" INDICATES FEW OR NO CLOUDS BELOW 12,000 FEET WITH NO SIGNIFICANT WEATHER AND/OR OBSTRUCTIONS TO VISIBILITY. NOT ALL STATIONS ARE QUALITY CONTROLLED. USE DATA WITH CAUTION... ESPECIALLY DEWPOINT OBSERVATIONS. SCZ027-030-031-034>040-042>050-171800- ...SOUTHEAST SOUTH CAROLINA... CITY SKY/WX TMP DP RH WIND PRES REMARKS N CHARLESTON PTSUNNY 69 59 70 VRB6 30.26F WATERFRONT PRK N/A 61 58 90 CALM 30.26F MOUNT PLEASANT FAIR 70 63 78 SW5 30.26F JOHNS ISLAND FAIR 75 63 64 SW9 30.26F PINOPOLIS N/A 55 55 100 CALM 30.20S MONCKS CORNER CLOUDY 57 57 100 CALM 30.27F SUMMERVILLE CLOUDY 63 63 100 W5 30.28F BEAUFORT MCAS MOSUNNY 70 61 73 W8 30.27F BEAUFORT ARPT NOT AVBL HILTON HEAD IS MOSUNNY 77 61 57 CALM 30.27F WALTERBORO CLOUDY 63 N/A N/A W3 30.28F ALLENDALE FAIR 66 59 77 CALM 30.25F ...SOUTHERN MIDLANDS AND PEE DEE... CITY SKY/WX TMP DP RH WIND PRES REMARKS GEORGETOWN FAIR 64 59 82 CALM 30.27F KINGSTREE CLOUDY 57 55 94 S5 30.27F ORANGEBURG CLOUDY 64 59 83 SW9 30.26F BARNWELL FAIR 70 61 73 S6 30.25F AIKEN FAIR 68 55 64 SW7 30.26F MANNING CLOUDY 57 55 94 SW5 30.27F COLUMBIA PTSUNNY 68 58 70 SW6 30.22F SUMTER NOT AVBL FLORENCE CLOUDY 57 57 100 SW6 30.25F FOG MYRTLE BEACH PTSUNNY 63 55 77 NW8 30.28F N MYRTLE BEACH PTSUNNY 63 57 81 NW6 30.25F $$ GAZ063-065-086>088-099>101-113>116-118-119-134>141-150-171800- ...SOUTHEAST GEORGIA... CITY SKY/WX TMP DP RH WIND PRES REMARKS SAVANNAH ARPT MOSUNNY 68 60 75 VRB6 30.27F HUNTER AAF NOT AVBL FORT STEWART NOT AVBL STATESBORO SUNNY 71 62 73 S6 30.26F SYLVANIA SUNNY N/A N/A N/A SW3 30.28F CLAXTON FAIR N/A N/A N/A S5 30.27F ...CSRA...CENTRAL AND FAR SOUTHEAST GEORGIA... CITY SKY/WX TMP DP RH WIND PRES REMARKS THOMSON MOSUNNY 72 60 66 SW8 30.28F AUGUSTA-BUSH SUNNY 73 57 57 SW10 30.23F AUGUSTA-DANIEL SUNNY 71 55 56 S12 30.24F SWAINSBORO FAIR 72 59 64 SW5 30.26F VIDALIA PTSUNNY 73 64 73 SW5 30.26F EASTMAN FAIR 74 53 48 SW5 30.28F HAZLEHURST FAIR 75 64 70 SW8 30.25F ALMA SUNNY 73 61 65 SW7 30.26F WAYCROSS SUNNY 76 65 68 SW8 30.26F JESUP FAIR 72 61 68 SW5 30.27F BAXLEY FAIR 73 64 73 W7 30.26F BRUNSWICK SUNNY 70 68 94 S8 30.27F SAINT SIMONS SUNNY 69 62 78 SW5 30.27F $$ SCZ027-028-034-036>038-045-046-048>050-GAZ119-141-171800- ...LAKE AND SUPPLEMENTAL COASTAL OBSERVATIONS... STATION/POSITION TIME TEMP WIND PRES WAVE SWELL AIR SEA DIR/SP/G HT/PER HT/PER/DIR (UTC) (F) (DEG/KT/KT) (MB) (FT/S) (FT/S/D) WINYAH BAY NOT AVBL LAKE MURRAY 1620 58 210/ 5/ 6 1024.0 ACE BASIN NERRS 1545 60 350/ 1 1026.0 FORT PULASKI 1648 59 56 360/ 1/ 1 1025.3F SAPELO ISLAND 1600 59 CALM 1026.0 $$ ANZ835-935-AMZ111-154-330-350-352-354-370-450-454-472-171800- ...C-MAN AND BUOY OBSERVATIONS... STATION/POSITION TIME TEMP WIND PRES WAVE SWELL AIR SEA DIR/SP/G HT/PER HT/PER/DIR (UTC) (F) (DEG/KT/KT) (MB) (FT/S) (FT/S/D) BUOY 41004 1550 69 70 320/ 2/ 2 1024.8 3/ 8 3/100/ 8 BUOY 41008 1550 59 60 330/ 4/ 6 1025.1 2/ 9 2/100/ 9 FOLLY BEACH CMAN 1600 60 90/ 3/ 4 1025.9R CAPERS NEARSHORE 1608 56 54 300/ 2/ 4 1025.0F FRIPP NEARSHORE 1608 56 56 40/ 2/ 4 1025.1S STATION/POSITION TIME TEMP WIND PRES WAVE SWELL AIR SEA DIR/SP/G HT/PER HT/PER/DIR (UTC) (F) (DEG/KT/KT) (MB) (FT/S) (FT/S/D) 5E ST. MARYS GA 1630 62 N/A 3/ 5 FRYING PAN BUOY 1650 72 73 240/ 10/ 12 1024.0F 2/10 2/110/10 BUOY 41025 1650 58 73 360/ 8/ 10 1023.7F 3/ 8 2/130/ 8 CAPE LOOKOUT NC 1600 59 30/ 4/ 6 1024.1F BUOY 41002 1650 72 72 220/ 14/ 16 1024.9F 3/ 9 3/ 40/ 9 BUOY 41010 NOT AVBL ST AUGUSTINE FL 1700 66 64 130/ 4/ 4 1025.3F $$

USA.gov is the U.S. government's official web portal to all federal, state and local government web resources and services.